Regional Weather Roundup
Issued by NWS Sioux Falls, SD

Home | Current Version | Previous Version | Text Only | Print | Product List | Glossary On
Versions: 1 2 3 4 5 6 7 8 9 10 11 12 13 14 15 16 17 18 19 20 21 22 23 24 25 26 27 28 29 30 31 32 33 34 35 36 37 38 39 40 41 42 43 44 45 46 47 48 49 50
000
ASUS43 KFSD 251810
RWRFSD

WEATHER ROUNDUP FOR SE SOUTH DAKOTA/SW MINNESOTA/NW IOWA
NATIONAL WEATHER SERVICE SIOUX FALLS SD
1200 PM CST TUE NOV 25 2014

NOTE: "FAIR" INDICATES FEW OR NO CLOUDS BELOW 12,000 FEET WITH NO
SIGNIFICANT WEATHER AND OR OBSTRUCTIONS TO VISIBILITY.


SDZ038>040-050-052>070-251900-
SOUTHEAST SOUTH DAKOTA

CITY           SKY/WX    TMP DP  RH WIND       PRES   REMARKS
CHAMBERLAIN    CLOUDY    36  26  67 SE10      29.87F
6HR MIN TEMP:  17; 6HR MAX TEMP:  36;

HURON          PTSUNNY   33  24  69 SE10      29.92F WCI  25
6HR MIN TEMP:  21; 6HR MAX TEMP:  33;

MADISON        FAIR      32  19  59 S12       29.95F WCI  23
MITCHELL       PTSUNNY   35  25  66 SE9       29.95F WCI  28
6HR MIN TEMP:  18; 6HR MAX TEMP:  35;

SIOUX FALLS    PTSUNNY   32  15  49 S9        29.98F WCI  24
6HR MIN TEMP:  11; 6HR MAX TEMP:  32;

WINNER         MOCLDY    39  24  55 S14       29.85F
YANKTON        PTSUNNY   37  25  60 S8        29.99F
$$

MNZ071-072-080-081-089-090-097-098-251900-
SOUTHWEST MINNESOTA

CITY           SKY/WX    TMP DP  RH WIND       PRES   REMARKS
FAIRMONT       SUNNY     28   7  40 SW6       30.05F WCI  22
JACKSON        CLOUDY    30   9  40 SW7       30.02F WCI  23
LUVERNE        PTSUNNY   32  14  47 S12       30.01F WCI  23
MARSHALL       CLOUDY    30  14  51 SW9       29.99F WCI  22
6HR MIN TEMP:  14; 6HR MAX TEMP:  30;

MONTEVIDEO     CLOUDY    25  14  63 S6        29.99F WCI  18
PIPESTONE      MOSUNNY   30  16  55 SW9       29.96F WCI  22
REDWOOD FALLS  CLOUDY    25   9  50 SE7       30.02F WCI  17
TRACY          CLOUDY    31  16  53 SW9       29.99F WCI  23
WINDOM         CLOUDY    27  10  50 S7        30.01F WCI  19
WORTHINGTON    CLOUDY    27  12  54 S9        30.01F WCI  17
$$

IAZ001>003-012>014-020>022-031-032-NEZ013-014-SDZ071-251900-
NORTHWEST IOWA

CITY           SKY/WX    TMP DP  RH WIND       PRES   REMARKS
CHEROKEE       SUNNY     32  10  39 SW7       30.04F WCI  26
DENISON        SUNNY     34   9  35 SW9       30.05F WCI  26
ESTHERVILLE    SUNNY     28   8  43 SW7       30.04F WCI  21
LE MARS        FAIR      32  14  47 S10       30.04F WCI  24
ORANGE CITY    SUNNY     34  10  37 S13       30.02F WCI  25
SHELDON        SUNNY     32  10  40 S12       30.01F WCI  23
SIOUX CITY     FAIR      37  19  48 S8        30.04F
6HR MIN TEMP:  12; 6HR MAX TEMP:  37;

SPENCER        PTSUNNY   30   6  36 S7        30.04F WCI  23
6HR MIN TEMP:   9; 6HR MAX TEMP:  31;

STORM LAKE     SUNNY     30   7  37 SW8G14    30.05F WCI  23
$$

ABBREVIATIONS USED IN REMARKS
   TC - TEMPERATURE IN CELSIUS
  WCI - WIND CHILL INDEX
   HX - HEAT INDEX
  VSB - VISIBILITY




USA.gov is the U.S. government's official web portal to all federal, state and local government web resources and services.